Weather History for Meadow Lake, CO

Change the Weather History Date:

Sunday, December 30, 2012

  Actual Average (KCOS) Record (KCOS)
Temperature  
Mean Temperature 26 °F 30 °F  
Max Temperature 40 °F 42 °F 71 °F (1980)
Min Temperature 12 °F 17 °F -10 °F (1990)
Degree Days  
Heating Degree Days 39 35  
Month to date heating degree days 1058  
Since 1 July heating degree days 2539  
Cooling Degree Days 0 0  
Month to date cooling degree days 0  
Year to date cooling degree days 455  
Moisture  
Dew Point -1 °F    
Average Humidity 37    
Maximum Humidity 62    
Minimum Humidity 16    
Precipitation  
Precipitation 0.00 in 0.01 in 0.09 in (1973)
Month to date precipitation 0.33  
Year to date precipitation 16.53  
Snow  
Snow 0.00 in 0.10 in 3.00 in (2010)
Month to date snowfall 5.5  
Since 1 July snowfall 13.3  
Snow Depth -    
Sea Level Pressure  
Sea Level Pressure 29.91 in    
Wind  
Wind Speed 6 mph (NNE)    
Max Wind Speed 15 mph    
Max Gust Speed 21 mph    
Visibility 10 miles    
Events      
T = Trace of Precipitation, MM = Missing Value Source: NWS Daily Summary

Daily Weather History Graph

Daily Weather History Graph

Search for Another Location

Airport:

Trip Planner

Search our weather history database for the weather conditions in past years. The results will help you decide how hot, cold, wet, or windy it might be!

Date:

Astronomy

Dec. 30, 2012 Rise Set
Actual Time 7:16 AM MST 4:45 PM MST
Civil Twilight 6:46 AM MST 5:15 PM MST
Nautical Twilight 6:13 AM MST 5:48 PM MST
Astronomical Twilight 5:41 AM MST 6:21 PM MST
Moon 7:17 PM MST (12/30) 8:28 AM MST (12/30)
Length of Visible Light 10h 28m
Length of Day
9h 28m
Waning Gibbous, 95% of the Moon is Illuminated
Dec 30
Waning Gibbous
Jan 4
Last Quarter
Jan 11
New
Jan 18
First Quarter
Jan 26
Full

Hourly Weather History & Observations

Time (MST) Temp. Windchill Dew Point Humidity Pressure Visibility Wind Dir Wind Speed Gust Speed Precip Events Conditions
12:14 AM 13.5 °F 7.5 °F -0.6 °F 54% 29.85 in 10.0 mi North 3.5 mph - N/A   Clear
12:34 AM 15.8 °F - -0.4 °F 49% 29.84 in 10.0 mi Calm Calm - N/A   Clear
12:54 AM 16.2 °F 7.6 °F -1.3 °F 46% 29.84 in 10.0 mi North 5.8 mph - N/A   Clear
1:14 AM 14.2 °F - -1.7 °F 50% 29.84 in 10.0 mi Calm Calm - N/A   Clear
1:34 AM 13.1 °F 5.4 °F -1.7 °F 52% 29.84 in 10.0 mi NNW 4.6 mph - N/A   Clear
1:54 AM 14.4 °F 6.9 °F -1.8 °F 49% 29.85 in 10.0 mi NNW 4.6 mph - N/A   Clear
2:14 AM 18.7 °F 11.9 °F -4.2 °F 36% 29.85 in 10.0 mi NNE 4.6 mph - N/A   Clear
2:34 AM 21.7 °F 13.2 °F -4.5 °F 32% 29.86 in 10.0 mi North 6.9 mph - N/A   Clear
2:54 AM 20.1 °F 12.3 °F -5.4 °F 32% 29.86 in 10.0 mi NNW 5.8 mph - N/A   Clear
3:14 AM 24.8 °F 16.1 °F -7.1 °F 25% 29.86 in 10.0 mi North 8.1 mph - N/A   Clear
3:34 AM 23.2 °F - -6.3 °F 27% 29.86 in 10.0 mi Calm Calm - N/A   Clear
3:54 AM 23.5 °F - -5.4 °F 28% 29.86 in 10.0 mi Calm Calm - N/A   Clear
4:14 AM 23.0 °F - -6.5 °F 27% 29.86 in 10.0 mi Calm Calm - N/A   Clear
4:34 AM 21.2 °F 16.4 °F -6.0 °F 30% 29.87 in 10.0 mi NW 3.5 mph - N/A   Clear
4:54 AM 19.6 °F 14.5 °F -6.3 °F 32% 29.88 in 10.0 mi NW 3.5 mph - N/A   Clear
5:14 AM 22.8 °F 12.2 °F -6.7 °F 27% 29.88 in 10.0 mi North 10.4 mph - N/A   Clear
5:34 AM 25.7 °F 15.7 °F -6.5 °F 24% 29.89 in 10.0 mi North 10.4 mph - N/A   Clear
5:54 AM 25.0 °F 17.1 °F -5.6 °F 26% 29.89 in 10.0 mi NNW 6.9 mph - N/A   Clear
6:14 AM 23.7 °F 17.8 °F -4.5 °F 29% 29.89 in 10.0 mi NNW 4.6 mph - N/A   Clear
6:34 AM 20.1 °F 10.3 °F -3.8 °F 35% 29.89 in 10.0 mi NW 8.1 mph - N/A   Clear
6:54 AM 22.5 °F 16.3 °F -3.6 °F 32% 29.89 in 10.0 mi NNW 4.6 mph - N/A   Clear
7:14 AM 27.5 °F 22.2 °F -3.3 °F 26% 29.88 in 10.0 mi NW 4.6 mph - N/A   Clear
7:34 AM 27.7 °F 20.4 °F -3.1 °F 26% 29.90 in 10.0 mi NW 6.9 mph - N/A   Clear
7:54 AM 21.0 °F 13.4 °F -3.5 °F 34% 29.89 in 10.0 mi SE 5.8 mph - N/A   Clear
8:14 AM 22.1 °F 17.4 °F -3.5 °F 33% 29.90 in 10.0 mi NE 3.5 mph - N/A   Clear
8:34 AM 23.0 °F 13.9 °F 0.5 °F 38% 29.91 in 10.0 mi NNE 8.1 mph - N/A   Clear
8:54 AM 25.3 °F 17.6 °F 0.5 °F 34% 29.92 in 10.0 mi NNE 6.9 mph - N/A   Clear
9:14 AM 25.7 °F 19.0 °F -1.3 °F 31% 29.94 in 10.0 mi NE 5.8 mph - N/A   Clear
9:34 AM 26.1 °F 18.4 °F -2.2 °F 29% 29.94 in 10.0 mi ENE 6.9 mph - N/A   Clear
9:54 AM 28.9 °F 22.8 °F -1.5 °F 27% 29.94 in 10.0 mi East 5.8 mph - N/A   Clear
10:14 AM 32.0 °F 24.8 °F -3.1 °F 22% 29.94 in 10.0 mi ESE 8.1 mph - N/A   Clear
10:34 AM 32.7 °F 26.4 °F -3.1 °F 22% 29.94 in 10.0 mi ESE 6.9 mph - N/A   Clear
10:54 AM 35.6 °F 28.0 °F -1.7 °F 21% 29.93 in 10.0 mi ESE 10.4 mph 16.1 mph N/A   Clear
11:14 AM 37.2 °F 31.9 °F -4.2 °F 17% 29.92 in 10.0 mi SE 6.9 mph 17.3 mph N/A   Clear
11:34 AM 39.2 °F 33.0 °F -1.7 °F 18% 29.91 in 10.0 mi SSE 9.2 mph 18.4 mph N/A   Clear
11:54 AM 40.5 °F 32.8 °F 0.1 °F 18% 29.91 in 10.0 mi South 13.8 mph 18.4 mph N/A   Clear
12:14 PM 40.3 °F 32.6 °F -0.9 °F 18% 29.90 in 10.0 mi SSE 13.8 mph 20.7 mph N/A   Clear
12:34 PM 39.4 °F 31.1 °F -2.2 °F 17% 29.90 in 10.0 mi SE 15.0 mph 20.7 mph N/A   Clear
12:54 PM 39.2 °F 30.8 °F -1.3 °F 18% 29.89 in 10.0 mi SSE 15.0 mph - N/A   Clear
1:14 PM 39.2 °F 30.8 °F -3.5 °F 16% 29.89 in 10.0 mi SSE 15.0 mph - N/A   Clear
1:34 PM 36.5 °F 28.2 °F -3.5 °F 18% 29.89 in 10.0 mi SSE 12.7 mph - N/A   Clear
1:54 PM 36.0 °F 26.7 °F -3.3 °F 19% 29.90 in 10.0 mi SE 15.0 mph - N/A   Clear
2:14 PM 33.4 °F 24.8 °F -1.1 °F 23% 29.90 in 10.0 mi SE 11.5 mph 16.1 mph N/A   Clear
2:34 PM 32.7 °F 23.4 °F -1.3 °F 23% 29.91 in 10.0 mi SE 12.7 mph 18.4 mph N/A   Clear
2:54 PM 32.0 °F 23.0 °F -0.8 °F 25% 29.90 in 10.0 mi SE 11.5 mph 18.4 mph N/A   Clear
3:14 PM 31.8 °F 23.3 °F 1.0 °F 27% 29.91 in 10.0 mi SE 10.4 mph 17.3 mph N/A   Clear
3:34 PM 30.7 °F 23.3 °F 1.4 °F 29% 29.92 in 10.0 mi SE 8.1 mph - N/A   Clear
3:54 PM 29.3 °F 19.6 °F 2.3 °F 32% 29.92 in 10.0 mi SE 11.5 mph 17.3 mph N/A   Clear
4:14 PM 27.5 °F 18.0 °F 1.9 °F 33% 29.92 in 10.0 mi SE 10.4 mph - N/A   Clear
4:34 PM 26.4 °F 18.9 °F 2.7 °F 36% 29.92 in 10.0 mi SSE 6.9 mph - N/A   Clear
4:54 PM 24.6 °F 16.7 °F 4.3 °F 42% 29.93 in 10.0 mi South 6.9 mph - N/A   Clear
5:14 PM 22.3 °F 14.9 °F 3.6 °F 45% 29.94 in 10.0 mi South 5.8 mph - N/A   Clear
5:34 PM 21.6 °F 12.1 °F 3.7 °F 46% 29.94 in 10.0 mi South 8.1 mph - N/A   Clear
5:54 PM 21.4 °F 16.6 °F 3.2 °F 46% 29.94 in 10.0 mi South 3.5 mph - N/A   Clear
6:14 PM 20.8 °F 13.2 °F 3.9 °F 48% 29.94 in 10.0 mi NNE 5.8 mph - N/A   Clear
6:34 PM 20.5 °F 15.6 °F 3.2 °F 47% 29.94 in 10.0 mi NNW 3.5 mph - N/A   Clear
6:54 PM 16.5 °F - 3.4 °F 56% 29.94 in 10.0 mi Calm Calm - N/A   Clear
7:14 PM 14.5 °F - 2.8 °F 60% 29.94 in 10.0 mi Calm Calm - N/A   Clear
7:34 PM 19.6 °F 14.5 °F 2.1 °F 47% 29.95 in 10.0 mi North 3.5 mph - N/A   Clear
7:54 PM 15.8 °F 6.1 °F 3.7 °F 59% 29.95 in 10.0 mi NW 6.9 mph - N/A   Clear
8:14 PM 16.5 °F 8.1 °F 4.5 °F 59% 29.95 in 10.0 mi NNW 5.8 mph - N/A   Clear
8:34 PM 16.7 °F 9.6 °F 4.5 °F 59% 29.94 in 10.0 mi NW 4.6 mph - N/A   Clear
8:54 PM 16.7 °F 9.6 °F 4.1 °F 58% 29.95 in 10.0 mi NW 4.6 mph - N/A   Clear
9:14 PM 17.4 °F 8.0 °F 3.7 °F 55% 29.95 in 10.0 mi NW 6.9 mph - N/A   Clear
9:34 PM 17.1 °F 11.7 °F 2.8 °F 54% 29.95 in 10.0 mi North 3.5 mph - N/A   Clear
9:54 PM 14.7 °F 7.3 °F 2.3 °F 58% 29.94 in 10.0 mi NNW 4.6 mph - N/A   Clear
10:14 PM 13.1 °F 4.0 °F 2.3 °F 62% 29.95 in 10.0 mi NW 5.8 mph - N/A   Clear
10:34 PM 12.9 °F 3.8 °F 2.1 °F 62% 29.95 in 10.0 mi NNW 5.8 mph - N/A   Clear
10:54 PM 14.5 °F 7.1 °F 2.3 °F 58% 29.93 in 10.0 mi NNW 4.6 mph - N/A   Clear
11:14 PM 14.2 °F 6.7 °F 2.1 °F 59% 29.93 in 10.0 mi North 4.6 mph - N/A   Clear
11:34 PM 13.3 °F 3.0 °F 2.1 °F 61% 29.92 in 10.0 mi NNW 6.9 mph - N/A   Clear
11:50 PM 14.7 °F 5.9 °F 3.4 °F 61% 29.91 in 10.0 mi NNW 5.8 mph - N/A   Clear